Year,Month,Day,Hour,Minute,Value (Times are PST for temperature in C)
2011,07,22,00,00,13.00
2011,07,22,00,01,13.00
2011,07,22,00,02,13.00
2011,07,22,00,03,13.00
2011,07,22,00,04,13.00
2011,07,22,00,05,12.90
2011,07,22,00,06,12.90
2011,07,22,00,07,12.90
2011,07,22,00,08,12.90
2011,07,22,00,09,12.90
2011,07,22,00,10,12.90
2011,07,22,00,11,12.90
2011,07,22,00,12,12.90
2011,07,22,00,13,12.90
2011,07,22,00,14,12.90
2011,07,22,00,15,12.90
2011,07,22,00,16,12.80
2011,07,22,00,17,12.80
2011,07,22,00,18,12.80
2011,07,22,00,19,12.80
2011,07,22,00,20,12.80
2011,07,22,00,21,12.80
2011,07,22,00,22,12.80
2011,07,22,00,23,12.80
2011,07,22,00,24,12.80
2011,07,22,00,25,12.80
2011,07,22,00,26,12.80
2011,07,22,00,27,12.80
2011,07,22,00,28,12.80
2011,07,22,00,29,12.80
2011,07,22,00,30,12.80
2011,07,22,00,31,12.80
2011,07,22,00,32,12.80
2011,07,22,00,33,12.80
2011,07,22,00,34,12.80
2011,07,22,00,35,12.80
2011,07,22,00,36,12.80
2011,07,22,00,37,12.80
2011,07,22,00,38,12.70
2011,07,22,00,39,12.70
2011,07,22,00,40,12.70
2011,07,22,00,41,12.70
2011,07,22,00,42,12.70
2011,07,22,00,43,12.70
2011,07,22,00,44,12.70
2011,07,22,00,45,12.70
2011,07,22,00,46,12.70
2011,07,22,00,47,12.70
2011,07,22,00,48,12.70
2011,07,22,00,49,12.70
2011,07,22,00,50,12.70
2011,07,22,00,51,12.70
2011,07,22,00,52,12.70
2011,07,22,00,53,12.70
2011,07,22,00,54,12.70
2011,07,22,00,55,12.70
2011,07,22,00,56,12.70
2011,07,22,00,57,12.70
2011,07,22,00,58,12.70
2011,07,22,00,59,12.70
2011,07,22,01,00,12.70
2011,07,22,01,01,12.70
2011,07,22,01,02,12.70
2011,07,22,01,03,12.70
2011,07,22,01,04,12.70
2011,07,22,01,05,12.70
2011,07,22,01,06,12.70
2011,07,22,01,07,12.70
2011,07,22,01,08,12.70
2011,07,22,01,09,12.70
2011,07,22,01,10,12.70
2011,07,22,01,11,12.70
2011,07,22,01,12,12.70
2011,07,22,01,13,12.70
2011,07,22,01,14,12.70
2011,07,22,01,15,12.70
2011,07,22,01,16,12.70
2011,07,22,01,17,12.70
2011,07,22,01,18,12.70
2011,07,22,01,19,12.70
2011,07,22,01,20,12.70
2011,07,22,01,21,12.60
2011,07,22,01,22,12.60
2011,07,22,01,23,12.60
2011,07,22,01,24,12.60
2011,07,22,01,25,12.60
2011,07,22,01,26,12.60
2011,07,22,01,27,12.60
2011,07,22,01,28,12.60
2011,07,22,01,29,12.60
2011,07,22,01,30,12.60
2011,07,22,01,31,12.60
2011,07,22,01,32,12.60
2011,07,22,01,33,12.60
2011,07,22,01,34,12.60
2011,07,22,01,35,12.60
2011,07,22,01,36,12.60
2011,07,22,01,37,12.60
2011,07,22,01,38,12.60
2011,07,22,01,39,12.60
2011,07,22,01,40,12.60
2011,07,22,01,41,12.60
2011,07,22,01,42,12.60
2011,07,22,01,43,12.60
2011,07,22,01,44,12.60
2011,07,22,01,45,12.60
2011,07,22,01,46,12.60
2011,07,22,01,47,12.60
2011,07,22,01,48,12.60
2011,07,22,01,49,12.60
2011,07,22,01,50,12.60
2011,07,22,01,51,12.60
2011,07,22,01,52,12.60
2011,07,22,01,53,12.60
2011,07,22,01,54,12.60
2011,07,22,01,55,12.60
2011,07,22,01,56,12.60
2011,07,22,01,57,12.60
2011,07,22,01,58,12.60
2011,07,22,01,59,12.50
2011,07,22,02,00,12.50
2011,07,22,02,01,12.50
2011,07,22,02,02,12.50
2011,07,22,02,03,12.50
2011,07,22,02,04,12.50
2011,07,22,02,05,12.50
2011,07,22,02,06,12.50
2011,07,22,02,07,12.50
2011,07,22,02,08,12.50
2011,07,22,02,09,12.50
2011,07,22,02,10,12.50
2011,07,22,02,11,12.50
2011,07,22,02,12,12.50
2011,07,22,02,13,12.50
2011,07,22,02,14,12.50
2011,07,22,02,15,12.50
2011,07,22,02,16,12.50
2011,07,22,02,17,12.50
2011,07,22,02,18,12.50
2011,07,22,02,19,12.40
2011,07,22,02,20,12.40
2011,07,22,02,21,12.40
2011,07,22,02,22,12.40
2011,07,22,02,23,12.40
2011,07,22,02,24,12.40
2011,07,22,02,25,12.40
2011,07,22,02,26,12.40
2011,07,22,02,27,12.30
2011,07,22,02,28,12.30
2011,07,22,02,29,12.30
2011,07,22,02,30,12.30
2011,07,22,02,31,12.30
2011,07,22,02,32,12.30
2011,07,22,02,33,12.30
2011,07,22,02,34,12.30
2011,07,22,02,35,12.30
2011,07,22,02,36,12.30
2011,07,22,02,37,12.30
2011,07,22,02,38,12.30
2011,07,22,06,18,11.60
2011,07,22,06,19,11.70
2011,07,22,06,20,11.70
2011,07,22,06,21,11.70
2011,07,22,06,22,11.80
2011,07,22,06,23,11.80
2011,07,22,06,24,11.80
2011,07,22,06,25,11.80
2011,07,22,06,26,11.80
2011,07,22,06,27,11.80
2011,07,22,06,28,11.90
2011,07,22,06,29,11.90
2011,07,22,06,30,11.90
2011,07,22,06,31,12.00
2011,07,22,06,32,12.00
2011,07,22,06,33,12.00
2011,07,22,06,34,12.10
2011,07,22,06,35,12.10
2011,07,22,06,36,12.10
2011,07,22,06,37,12.20
2011,07,22,06,38,12.20
2011,07,22,06,39,12.20
2011,07,22,06,40,12.30
2011,07,22,06,41,12.30
2011,07,22,06,42,12.30
2011,07,22,06,43,12.40
2011,07,22,06,44,12.40
2011,07,22,06,45,12.40
2011,07,22,06,46,12.50
2011,07,22,06,47,12.50
2011,07,22,06,48,12.50
2011,07,22,06,49,12.50
2011,07,22,06,50,12.60
2011,07,22,06,51,12.60
2011,07,22,06,52,12.60
2011,07,22,06,53,12.70
2011,07,22,06,54,12.70
2011,07,22,06,55,12.70
2011,07,22,06,56,12.70
2011,07,22,06,57,12.70
2011,07,22,06,58,12.70
2011,07,22,06,59,12.70
2011,07,22,07,00,12.80
2011,07,22,07,01,12.80
2011,07,22,07,02,12.80
2011,07,22,07,03,12.80
2011,07,22,07,04,12.80
2011,07,22,07,05,12.80
2011,07,22,07,06,12.80
2011,07,22,07,07,12.80
2011,07,22,07,08,12.80
2011,07,22,07,09,12.80
2011,07,22,07,10,12.80
2011,07,22,07,11,12.80
2011,07,22,07,12,12.80
2011,07,22,07,13,12.90
2011,07,22,07,14,12.90
2011,07,22,07,15,12.90
2011,07,22,07,16,12.90
2011,07,22,07,17,12.90
2011,07,22,07,18,12.90
2011,07,22,07,19,13.00
2011,07,22,07,20,13.00
2011,07,22,07,21,13.00
2011,07,22,07,22,13.00
2011,07,22,07,23,13.00
2011,07,22,07,24,13.00
2011,07,22,07,25,13.00
2011,07,22,07,26,13.00
2011,07,22,07,27,13.10
2011,07,22,07,28,13.10
2011,07,22,07,29,13.10
2011,07,22,07,30,13.10
2011,07,22,07,31,13.10
2011,07,22,07,32,13.10
2011,07,22,07,33,13.20
2011,07,22,07,34,13.20
2011,07,22,07,35,13.20
2011,07,22,07,36,13.30
2011,07,22,07,37,13.30
2011,07,22,07,38,13.30
2011,07,22,07,39,13.30
2011,07,22,07,40,13.40
2011,07,22,07,41,13.40
2011,07,22,07,42,13.50
2011,07,22,07,43,13.50
2011,07,22,07,44,13.60
2011,07,22,07,45,13.60
2011,07,22,07,46,13.60
2011,07,22,07,47,13.70
2011,07,22,07,48,13.70
2011,07,22,07,49,13.70
2011,07,22,07,50,13.70
2011,07,22,07,51,13.70
2011,07,22,07,52,13.70
2011,07,22,07,53,13.80
2011,07,22,07,54,13.80
2011,07,22,07,55,13.80
2011,07,22,07,56,13.80
2011,07,22,07,57,13.90
2011,07,22,07,58,13.90
2011,07,22,07,59,13.90
2011,07,22,08,00,13.90
2011,07,22,08,01,14.00
2011,07,22,08,02,14.00
2011,07,22,08,03,13.90
2011,07,22,08,04,13.90
2011,07,22,08,05,14.00
2011,07,22,08,06,14.00
2011,07,22,08,07,14.00
2011,07,22,08,08,14.10
2011,07,22,08,09,14.10
2011,07,22,08,10,14.20
2011,07,22,08,11,14.20
2011,07,22,08,12,14.20
2011,07,22,08,13,14.20
2011,07,22,08,14,14.20
2011,07,22,08,15,14.20
2011,07,22,08,16,14.30
2011,07,22,08,17,14.30
2011,07,22,08,18,14.30
2011,07,22,08,19,14.30
2011,07,22,08,20,14.40
2011,07,22,08,21,14.40
2011,07,22,08,22,14.40
2011,07,22,08,23,14.40
2011,07,22,08,24,14.50
2011,07,22,08,25,14.50
2011,07,22,08,26,14.50
2011,07,22,08,27,14.50
2011,07,22,08,28,14.50
2011,07,22,08,29,14.50
2011,07,22,08,30,14.50
2011,07,22,08,31,14.50
2011,07,22,08,32,14.50
2011,07,22,08,33,14.60
2011,07,22,08,34,14.60
2011,07,22,08,35,14.70
2011,07,22,08,36,14.70
2011,07,22,08,37,14.70
2011,07,22,08,38,14.80
2011,07,22,08,39,14.80
2011,07,22,08,40,14.80
2011,07,22,08,41,14.80
2011,07,22,08,42,14.80
2011,07,22,08,43,14.90
2011,07,22,08,44,14.90
2011,07,22,08,45,15.00
2011,07,22,08,46,15.00
2011,07,22,08,47,15.10
2011,07,22,08,48,15.10
2011,07,22,08,49,15.10
2011,07,22,08,50,15.20
2011,07,22,08,51,15.20
2011,07,22,08,52,15.20
2011,07,22,08,53,15.30
2011,07,22,08,54,15.30
2011,07,22,08,55,15.30
2011,07,22,08,56,15.30
2011,07,22,08,57,15.30
2011,07,22,08,58,15.30
2011,07,22,08,59,15.30
2011,07,22,09,00,15.30
2011,07,22,09,01,15.30
2011,07,22,09,02,15.30
2011,07,22,09,03,15.40
2011,07,22,09,04,15.40
2011,07,22,09,05,15.50
2011,07,22,09,06,15.50
2011,07,22,09,07,15.50
2011,07,22,09,08,15.40
2011,07,22,09,09,15.50
2011,07,22,09,10,15.50
2011,07,22,09,11,15.50
2011,07,22,09,12,15.60
2011,07,22,09,13,15.60
2011,07,22,09,14,15.60
2011,07,22,09,15,15.60
2011,07,22,09,16,15.60
2011,07,22,09,17,15.60
2011,07,22,09,18,15.70
2011,07,22,09,19,15.70
2011,07,22,09,20,15.70
2011,07,22,09,21,15.70
2011,07,22,09,22,15.70
2011,07,22,09,23,15.70
2011,07,22,09,24,15.70
2011,07,22,09,25,15.80
2011,07,22,09,26,15.80
2011,07,22,09,27,15.80
2011,07,22,09,28,15.90
2011,07,22,09,29,15.90
2011,07,22,09,30,15.90
2011,07,22,09,31,15.80
2011,07,22,09,32,15.80
2011,07,22,09,33,15.90
2011,07,22,09,34,15.90
2011,07,22,09,35,15.90
2011,07,22,09,36,16.10
2011,07,22,09,37,16.10
2011,07,22,09,38,16.10
2011,07,22,09,39,16.10
2011,07,22,09,40,16.10
2011,07,22,09,41,16.10
2011,07,22,09,42,16.10
2011,07,22,09,43,16.10
2011,07,22,09,44,16.10
2011,07,22,09,45,16.10
2011,07,22,09,46,16.10
2011,07,22,09,47,16.10
2011,07,22,09,48,16.10
2011,07,22,09,49,16.10
2011,07,22,09,50,16.10
2011,07,22,09,51,16.10
2011,07,22,09,52,16.10
2011,07,22,09,53,16.10
2011,07,22,09,54,16.10
2011,07,22,09,55,16.20
2011,07,22,09,56,16.20
2011,07,22,09,57,16.40
2011,07,22,09,58,16.40
2011,07,22,09,59,16.40
2011,07,22,10,00,16.40
2011,07,22,10,01,16.40
2011,07,22,10,02,16.40
2011,07,22,10,03,16.40
2011,07,22,10,04,16.60
2011,07,22,10,05,16.70
2011,07,22,10,06,16.70
2011,07,22,10,07,16.90
2011,07,22,10,08,16.90
2011,07,22,10,09,17.00
2011,07,22,10,10,17.10
2011,07,22,10,11,17.20
2011,07,22,10,12,17.30
2011,07,22,10,13,17.30
2011,07,22,10,14,17.30
2011,07,22,10,15,17.30
2011,07,22,10,16,17.30
2011,07,22,10,17,17.30
2011,07,22,10,18,17.10
2011,07,22,10,19,17.00
2011,07,22,10,20,16.90
2011,07,22,10,21,16.80
2011,07,22,10,22,16.70
2011,07,22,10,23,16.70
2011,07,22,10,24,16.70
2011,07,22,10,25,16.80
2011,07,22,10,26,16.90
2011,07,22,10,27,17.00
2011,07,22,10,28,17.10
2011,07,22,10,29,17.10
2011,07,22,10,30,17.20
2011,07,22,10,31,17.20
2011,07,22,10,32,17.10
2011,07,22,10,33,17.10
2011,07,22,10,34,17.10
2011,07,22,10,35,17.20
2011,07,22,10,36,17.20
2011,07,22,10,37,17.10
2011,07,22,10,38,17.00
2011,07,22,10,39,17.00
2011,07,22,10,40,17.10
2011,07,22,10,41,17.20
2011,07,22,10,42,17.20
2011,07,22,10,43,17.20
2011,07,22,10,44,17.20
2011,07,22,10,45,17.30
2011,07,22,10,46,17.30
2011,07,22,10,47,17.30
2011,07,22,10,48,17.30
2011,07,22,10,49,17.30
2011,07,22,10,50,17.20
2011,07,22,10,51,17.20
2011,07,22,10,52,17.20
2011,07,22,10,53,17.20
2011,07,22,10,54,17.30
2011,07,22,10,55,17.30
2011,07,22,10,56,17.30
2011,07,22,10,57,17.40
2011,07,22,10,58,17.50
2011,07,22,10,59,17.50
2011,07,22,11,00,17.50
2011,07,22,11,01,17.50
2011,07,22,11,02,17.40
2011,07,22,11,03,17.40
2011,07,22,11,04,17.30
2011,07,22,11,05,17.30
2011,07,22,11,06,17.30
2011,07,22,11,07,17.20
2011,07,22,11,08,17.20
2011,07,22,11,09,17.20
2011,07,22,11,10,17.30
2011,07,22,11,11,17.30
2011,07,22,11,12,17.40
2011,07,22,11,13,17.40
2011,07,22,11,14,17.40
2011,07,22,11,15,17.50
2011,07,22,11,16,17.50
2011,07,22,11,17,17.40
2011,07,22,11,18,17.40
2011,07,22,11,19,17.40
2011,07,22,11,20,17.40
2011,07,22,11,21,17.40
2011,07,22,11,22,17.40
2011,07,22,11,23,17.40
2011,07,22,11,24,17.50
2011,07,22,11,25,17.60
2011,07,22,11,26,17.80
2011,07,22,11,27,17.80
2011,07,22,11,28,17.70
2011,07,22,11,29,17.60
2011,07,22,11,30,17.40
2011,07,22,11,31,17.30
2011,07,22,11,32,17.20
2011,07,22,11,33,17.20
2011,07,22,11,34,17.20
2011,07,22,11,35,17.20
2011,07,22,11,36,17.10
2011,07,22,11,37,17.20
2011,07,22,11,38,17.10
2011,07,22,11,39,17.10
2011,07,22,11,40,17.10
2011,07,22,11,41,17.20
2011,07,22,11,42,17.30
2011,07,22,11,43,17.30
2011,07,22,11,44,17.30
2011,07,22,11,45,17.20
2011,07,22,11,46,17.20
2011,07,22,11,47,17.10
2011,07,22,11,48,17.10
2011,07,22,11,49,17.10
2011,07,22,11,50,17.00
2011,07,22,11,51,17.00
2011,07,22,11,52,17.00
2011,07,22,11,53,17.10
2011,07,22,11,54,17.10
2011,07,22,11,55,17.10
2011,07,22,11,56,17.10
2011,07,22,11,57,17.20
2011,07,22,11,58,17.20
2011,07,22,11,59,17.30
2011,07,22,12,00,17.30
2011,07,22,12,01,17.30
2011,07,22,12,02,17.30
2011,07,22,12,03,17.40
2011,07,22,12,04,17.60
2011,07,22,12,05,17.70
2011,07,22,12,06,17.80
2011,07,22,12,07,17.80
2011,07,22,12,08,17.80
2011,07,22,12,09,17.70
2011,07,22,12,10,17.50
2011,07,22,12,11,17.50
2011,07,22,12,12,17.50
2011,07,22,12,13,17.50
2011,07,22,12,14,17.50
2011,07,22,12,15,17.50
2011,07,22,12,16,17.50
2011,07,22,12,17,17.50
2011,07,22,12,18,17.60
2011,07,22,12,19,17.50
2011,07,22,12,20,17.40
2011,07,22,12,21,17.40
2011,07,22,12,22,17.50
2011,07,22,12,23,17.50
2011,07,22,12,24,17.70
2011,07,22,12,25,17.80
2011,07,22,12,26,17.90
2011,07,22,12,27,17.80
2011,07,22,12,28,17.80
2011,07,22,12,29,17.70
2011,07,22,12,30,17.60
2011,07,22,12,31,17.50
2011,07,22,12,32,17.60
2011,07,22,12,33,17.60
2011,07,22,12,34,17.70
2011,07,22,12,35,17.70
2011,07,22,12,36,17.90
2011,07,22,12,37,17.90
2011,07,22,12,38,17.90
2011,07,22,12,39,17.90
2011,07,22,12,40,17.90
2011,07,22,12,41,17.70
2011,07,22,12,42,17.60
2011,07,22,12,43,17.70
2011,07,22,12,44,17.80
2011,07,22,12,45,17.90
2011,07,22,12,46,17.90
2011,07,22,12,47,17.90
2011,07,22,12,48,17.80
2011,07,22,12,49,17.90
2011,07,22,12,50,17.90
2011,07,22,12,51,17.90
2011,07,22,12,52,17.90
2011,07,22,12,53,17.90
2011,07,22,12,54,18.00
2011,07,22,12,55,18.20
2011,07,22,12,56,18.20
2011,07,22,12,57,18.20
2011,07,22,12,58,18.20
2011,07,22,12,59,18.10
2011,07,22,13,00,18.10
2011,07,22,13,01,18.20
2011,07,22,13,02,18.20
2011,07,22,13,03,18.00
2011,07,22,13,04,17.90
2011,07,22,13,05,17.90
2011,07,22,13,06,17.90
2011,07,22,13,07,18.00
2011,07,22,13,08,18.00
2011,07,22,13,09,18.20
2011,07,22,13,10,18.20
2011,07,22,13,11,18.20
2011,07,22,13,12,18.10
2011,07,22,13,13,18.20
2011,07,22,13,14,18.20
2011,07,22,13,15,18.30
2011,07,22,13,16,18.30
2011,07,22,13,17,18.40
2011,07,22,13,18,18.50
2011,07,22,13,19,18.60
2011,07,22,13,20,18.50
2011,07,22,13,21,18.50
2011,07,22,13,22,18.30
2011,07,22,13,23,18.30
2011,07,22,13,24,18.30
2011,07,22,13,25,18.20
2011,07,22,13,26,18.30
2011,07,22,13,27,18.30
2011,07,22,13,28,18.20
2011,07,22,13,29,18.30
2011,07,22,13,30,18.40
2011,07,22,13,31,18.50
2011,07,22,13,32,18.60
2011,07,22,13,33,18.60
2011,07,22,13,34,18.60
2011,07,22,13,35,18.30
2011,07,22,13,36,18.20
2011,07,22,13,37,18.20
2011,07,22,13,38,18.20
2011,07,22,13,39,18.10
2011,07,22,13,40,18.00
2011,07,22,13,41,18.10
2011,07,22,13,42,18.20
2011,07,22,13,43,18.40
2011,07,22,13,44,18.40
2011,07,22,13,45,18.40
2011,07,22,13,46,18.30
2011,07,22,13,47,18.10
2011,07,22,13,48,18.10
2011,07,22,13,49,18.20
2011,07,22,13,50,18.30
2011,07,22,13,51,18.20
2011,07,22,13,52,17.80
2011,07,22,13,53,17.50
2011,07,22,13,54,17.40
2011,07,22,13,55,17.30
2011,07,22,13,56,17.20
2011,07,22,13,57,17.20
2011,07,22,13,58,17.10
2011,07,22,13,59,17.20
2011,07,22,14,00,17.30
2011,07,22,14,01,17.30
2011,07,22,14,02,17.40
2011,07,22,14,03,17.40
2011,07,22,14,04,17.50
2011,07,22,14,05,17.40
2011,07,22,14,06,17.40
2011,07,22,14,07,17.40
2011,07,22,14,08,17.40
2011,07,22,14,09,17.50
2011,07,22,14,10,17.50
2011,07,22,14,11,17.50
2011,07,22,14,12,17.50
2011,07,22,14,13,17.60
2011,07,22,14,14,17.60
2011,07,22,14,15,17.60
2011,07,22,14,16,17.60
2011,07,22,14,17,17.70
2011,07,22,14,18,17.80
2011,07,22,14,19,17.60
2011,07,22,14,20,17.50
2011,07,22,14,21,17.40
2011,07,22,14,22,17.30
2011,07,22,14,23,17.30
2011,07,22,14,24,17.30
2011,07,22,14,25,17.30
2011,07,22,14,26,17.30
2011,07,22,14,27,17.30
2011,07,22,14,28,17.30
2011,07,22,14,29,17.40
2011,07,22,14,30,17.60
2011,07,22,14,31,17.70
2011,07,22,14,32,17.90
2011,07,22,14,33,18.00
2011,07,22,14,34,18.20
2011,07,22,14,35,18.30
2011,07,22,14,36,18.50
2011,07,22,14,37,18.50
2011,07,22,14,38,18.60
2011,07,22,14,39,18.70
2011,07,22,14,40,18.90
2011,07,22,14,41,19.10
2011,07,22,14,42,19.30
2011,07,22,14,43,19.50
2011,07,22,14,44,19.60
2011,07,22,14,45,19.60
2011,07,22,14,46,19.60
2011,07,22,14,47,19.60
2011,07,22,14,48,19.70
2011,07,22,14,49,19.80
2011,07,22,14,50,19.80
2011,07,22,14,51,19.70
2011,07,22,14,52,19.70
2011,07,22,14,53,19.60
2011,07,22,14,54,19.60
2011,07,22,14,55,19.60
2011,07,22,14,56,19.70
2011,07,22,14,57,19.80
2011,07,22,14,58,19.80
2011,07,22,14,59,19.70
2011,07,22,15,00,19.60
2011,07,22,15,01,19.60
2011,07,22,15,02,19.60
2011,07,22,15,03,19.70
2011,07,22,15,04,19.70
2011,07,22,15,05,19.70
2011,07,22,15,06,19.60
2011,07,22,15,07,19.60
2011,07,22,15,08,19.60
2011,07,22,15,09,19.50
2011,07,22,15,10,19.50
2011,07,22,15,11,19.50
2011,07,22,15,12,19.50
2011,07,22,15,13,19.60
2011,07,22,15,14,19.60
2011,07,22,15,15,19.60
2011,07,22,15,16,19.60
2011,07,22,15,17,19.70
2011,07,22,15,18,19.70
2011,07,22,15,19,19.60
2011,07,22,15,20,19.50
2011,07,22,15,21,19.40
2011,07,22,15,22,19.20
2011,07,22,15,23,18.90
2011,07,22,15,24,18.90
2011,07,22,15,25,18.90
2011,07,22,15,26,18.90
2011,07,22,15,27,18.90
2011,07,22,15,28,18.90
2011,07,22,15,29,18.90
2011,07,22,15,30,18.90
2011,07,22,15,31,18.80
2011,07,22,15,32,18.60
2011,07,22,15,33,18.00
2011,07,22,15,34,17.70
2011,07,22,15,35,17.40
2011,07,22,15,36,17.30
2011,07,22,15,37,17.10
2011,07,22,15,38,17.10
2011,07,22,15,39,17.10
2011,07,22,15,40,17.00
2011,07,22,15,41,16.90
2011,07,22,15,42,16.90
2011,07,22,15,43,16.90
2011,07,22,15,44,17.00
2011,07,22,15,45,17.00
2011,07,22,15,46,16.90
2011,07,22,15,47,16.80
2011,07,22,15,48,16.70
2011,07,22,15,49,16.70
2011,07,22,15,50,16.70
2011,07,22,15,51,16.80
2011,07,22,15,52,16.80
2011,07,22,15,53,16.70
2011,07,22,15,54,16.60
2011,07,22,15,55,16.40
2011,07,22,15,56,16.20
2011,07,22,15,57,16.00
2011,07,22,15,58,15.80
2011,07,22,15,59,15.80
2011,07,22,16,00,15.70
2011,07,22,16,01,15.60
2011,07,22,16,02,15.70
2011,07,22,16,03,15.80
2011,07,22,16,04,15.90
2011,07,22,16,05,16.10
2011,07,22,16,06,16.30
2011,07,22,16,07,16.50
2011,07,22,16,08,16.70
2011,07,22,16,09,16.70
2011,07,22,16,10,16.60
2011,07,22,16,11,16.40
2011,07,22,16,12,16.40
2011,07,22,16,13,16.40
2011,07,22,16,14,16.50
2011,07,22,16,15,16.60
2011,07,22,16,16,16.60
2011,07,22,16,17,16.70
2011,07,22,16,18,16.70
2011,07,22,16,19,16.70
2011,07,22,16,20,16.80
2011,07,22,16,21,16.80
2011,07,22,16,22,16.90
2011,07,22,16,23,17.00
2011,07,22,16,24,17.10
2011,07,22,16,25,17.20
2011,07,22,16,26,17.40
2011,07,22,16,27,17.50
2011,07,22,16,28,17.60
2011,07,22,16,29,17.70
2011,07,22,16,30,17.90
2011,07,22,16,31,18.00
2011,07,22,16,32,18.20
2011,07,22,16,33,18.20
2011,07,22,16,34,18.30
2011,07,22,16,35,18.30
2011,07,22,16,36,18.20
2011,07,22,16,37,18.30
2011,07,22,16,38,18.40
2011,07,22,16,39,18.40
2011,07,22,16,40,18.40
2011,07,22,16,41,18.40
2011,07,22,16,42,18.50
2011,07,22,16,43,18.50
2011,07,22,16,44,18.50
2011,07,22,16,45,18.50
2011,07,22,16,46,18.50
2011,07,22,16,47,18.50
2011,07,22,16,48,18.50
2011,07,22,16,49,18.50
2011,07,22,16,50,18.50
2011,07,22,16,51,18.50
2011,07,22,16,52,18.50
2011,07,22,16,53,18.20
2011,07,22,16,54,18.10
2011,07,22,16,55,18.00
2011,07,22,16,56,17.80
2011,07,22,16,57,17.60
2011,07,22,16,58,17.50
2011,07,22,16,59,17.40
2011,07,22,17,00,17.50
2011,07,22,17,01,17.60
2011,07,22,17,02,17.80
2011,07,22,17,03,17.80
2011,07,22,17,04,17.70
2011,07,22,17,05,17.60
2011,07,22,17,06,17.50
2011,07,22,17,07,17.50
2011,07,22,17,08,17.50
2011,07,22,17,09,17.50
2011,07,22,17,10,17.50
2011,07,22,17,11,17.60
2011,07,22,17,12,17.50
2011,07,22,17,13,17.60
2011,07,22,17,14,17.60
2011,07,22,17,15,17.70
2011,07,22,17,16,17.70
2011,07,22,17,17,17.70
2011,07,22,17,18,17.70
2011,07,22,17,19,17.60
2011,07,22,17,20,17.60
2011,07,22,17,21,17.60
2011,07,22,17,22,17.60
2011,07,22,17,23,17.60
2011,07,22,17,24,17.60
2011,07,22,17,25,17.70
2011,07,22,17,26,17.80
2011,07,22,17,27,17.90
2011,07,22,17,28,17.80
2011,07,22,17,29,17.50
2011,07,22,17,30,17.40
2011,07,22,17,31,17.30
2011,07,22,17,32,17.30
2011,07,22,17,33,17.20
2011,07,22,17,34,17.10
2011,07,22,17,35,17.10
2011,07,22,17,36,17.20
2011,07,22,17,37,17.30
2011,07,22,17,38,17.40
2011,07,22,17,39,17.40
2011,07,22,17,40,17.50
2011,07,22,17,41,17.50
2011,07,22,17,42,17.50
2011,07,22,17,43,17.50
2011,07,22,17,44,17.50
2011,07,22,17,45,17.60
2011,07,22,17,46,17.60
2011,07,22,17,47,17.60
2011,07,22,17,48,17.60
2011,07,22,17,49,17.60
2011,07,22,17,50,17.70
2011,07,22,17,51,17.70
2011,07,22,17,52,17.80
2011,07,22,17,53,17.90
2011,07,22,17,54,17.90
2011,07,22,17,55,17.90
2011,07,22,17,56,17.90
2011,07,22,17,57,17.90
2011,07,22,17,58,17.80
2011,07,22,17,59,17.70
2011,07,22,18,00,17.50
2011,07,22,18,01,17.20
2011,07,22,18,02,17.00
2011,07,22,18,03,16.80
2011,07,22,18,04,16.70
2011,07,22,18,05,16.50
2011,07,22,18,06,16.40
2011,07,22,18,07,16.30
2011,07,22,18,08,16.20
2011,07,22,18,09,16.10
2011,07,22,18,10,16.10
2011,07,22,18,11,16.10
2011,07,22,18,12,16.20
2011,07,22,18,13,16.20
2011,07,22,18,14,16.10
2011,07,22,18,15,16.10
2011,07,22,18,16,16.10
2011,07,22,18,17,16.10
2011,07,22,18,18,16.10
2011,07,22,18,19,16.20
2011,07,22,18,20,16.20
2011,07,22,18,21,16.20
2011,07,22,18,22,16.30
2011,07,22,18,23,16.20
2011,07,22,18,24,16.30
2011,07,22,18,25,16.30
2011,07,22,18,26,16.30
2011,07,22,18,27,16.20
2011,07,22,18,28,16.20
2011,07,22,18,29,16.20
2011,07,22,18,30,16.20
2011,07,22,18,31,16.30
2011,07,22,18,32,16.20
2011,07,22,18,33,16.00
2011,07,22,18,34,15.90
2011,07,22,18,35,15.90
2011,07,22,18,36,16.00
2011,07,22,18,37,16.00
2011,07,22,18,38,15.90
2011,07,22,18,39,15.90
2011,07,22,18,40,15.80
2011,07,22,18,41,15.80
2011,07,22,18,42,15.80
2011,07,22,18,43,15.80
2011,07,22,18,44,15.80
2011,07,22,18,45,15.80
2011,07,22,18,46,15.80
2011,07,22,18,47,15.80
2011,07,22,18,48,15.70
2011,07,22,18,49,15.60
2011,07,22,18,50,15.50
2011,07,22,18,51,15.50
2011,07,22,18,52,15.50
2011,07,22,18,53,15.40
2011,07,22,18,54,15.40
2011,07,22,18,55,15.30
2011,07,22,18,56,15.20
2011,07,22,18,57,15.20
2011,07,22,18,58,15.10
2011,07,22,18,59,15.00
2011,07,22,19,00,15.00
2011,07,22,19,01,15.00
2011,07,22,19,02,15.00
2011,07,22,19,03,15.00
2011,07,22,19,04,14.90
2011,07,22,19,05,14.90
2011,07,22,19,06,14.90
2011,07,22,19,07,14.90
2011,07,22,19,08,14.90
2011,07,22,19,09,14.90
2011,07,22,19,10,14.90
2011,07,22,19,11,14.90
2011,07,22,19,12,14.90
2011,07,22,19,13,14.80
2011,07,22,19,14,14.80
2011,07,22,19,15,14.80
2011,07,22,19,16,14.80
2011,07,22,19,17,14.80
2011,07,22,19,18,14.80
2011,07,22,19,19,14.70
2011,07,22,19,20,14.70
2011,07,22,19,21,14.70
2011,07,22,19,22,14.70
2011,07,22,19,23,14.70
2011,07,22,19,24,14.70
2011,07,22,19,25,14.70
2011,07,22,19,26,14.60
2011,07,22,19,27,14.50
2011,07,22,19,28,14.50
2011,07,22,19,29,14.40
2011,07,22,19,30,14.40
2011,07,22,19,31,14.40
2011,07,22,19,32,14.30
2011,07,22,19,33,14.30
2011,07,22,19,34,14.30
2011,07,22,19,35,14.30
2011,07,22,19,36,14.30
2011,07,22,19,37,14.20
2011,07,22,19,38,14.20
2011,07,22,19,39,14.10
2011,07,22,19,40,14.10
2011,07,22,19,41,14.10
2011,07,22,19,42,14.00
2011,07,22,19,43,14.00
2011,07,22,19,44,13.90
2011,07,22,19,45,13.90
2011,07,22,19,46,13.80
2011,07,22,19,47,13.90
2011,07,22,19,48,13.90
2011,07,22,19,49,13.90
2011,07,22,19,50,14.00
2011,07,22,19,51,14.00
2011,07,22,19,52,14.00
2011,07,22,19,53,13.90
2011,07,22,19,54,13.90
2011,07,22,19,55,14.00
2011,07,22,19,56,14.00
2011,07,22,19,57,14.10
2011,07,22,19,58,14.00
2011,07,22,19,59,14.00
2011,07,22,20,00,14.00
2011,07,22,20,01,13.90
2011,07,22,20,02,13.80
2011,07,22,20,03,13.80
2011,07,22,20,04,13.70
2011,07,22,20,05,13.70
2011,07,22,20,06,13.70
2011,07,22,20,07,13.70
2011,07,22,20,08,13.70
2011,07,22,20,09,13.70
2011,07,22,20,10,13.70
2011,07,22,20,11,13.70
2011,07,22,20,12,13.70
2011,07,22,20,13,13.70
2011,07,22,20,14,13.70
2011,07,22,20,15,13.70
2011,07,22,20,16,13.70
2011,07,22,20,17,13.70
2011,07,22,20,18,13.70
2011,07,22,20,19,13.70
2011,07,22,20,20,13.70
2011,07,22,20,21,13.70
2011,07,22,20,22,13.70
2011,07,22,20,23,13.70
2011,07,22,20,24,13.70
2011,07,22,20,25,13.70
2011,07,22,20,26,13.70
2011,07,22,20,27,13.70
2011,07,22,20,28,13.70
2011,07,22,20,29,13.70
2011,07,22,20,30,13.70
2011,07,22,20,31,13.80
2011,07,22,20,32,13.80
2011,07,22,20,33,13.70
2011,07,22,20,34,13.70
2011,07,22,20,35,13.70
2011,07,22,20,36,13.70
2011,07,22,20,37,13.70
2011,07,22,20,38,13.70
2011,07,22,20,39,13.60
2011,07,22,20,40,13.60
2011,07,22,20,41,13.60
2011,07,22,20,42,13.50
2011,07,22,20,43,13.50
2011,07,22,20,44,13.50
2011,07,22,20,45,13.50
2011,07,22,20,46,13.50
2011,07,22,20,47,13.50
2011,07,22,20,48,13.50
2011,07,22,20,49,13.50
2011,07,22,20,50,13.50
2011,07,22,20,51,13.50
2011,07,22,20,52,13.50
2011,07,22,20,53,13.50
2011,07,22,20,54,13.50
2011,07,22,20,55,13.50
2011,07,22,20,56,13.40
2011,07,22,20,57,13.40
2011,07,22,20,58,13.40